#timestamp,LO_Frequency,Hit,StdDev 
1571011215.1,286047004.7,N
1571011216.0,286047004.7,N
1571011235.8,286047005.8,Y
1571011255.6,286047000.2,P
1571011275.5,286047000.7,N
1571011295.3,286047000.6,N
1571011315.2,286046998.6,Y
1571011335.9,286047000.1,P
1571011355.7,286046999.9,N
1571011375.6,286047000.0,N
1571011395.4,286047001.0,Y
1571011415.3,286047000.5,P
1571011435.1,286046999.7,N
1571011436.0,286046999.7,N
1571011455.8,286047003.1,Y
1571011475.7,286047005.6,P
1571011495.5,286047000.3,N
1571011515.4,286047000.4,N
1571011535.2,286047002.8,N
1571011555.0,286047000.9,N
1571011555.9,286047000.9,N
1571011575.4,286047000.0,N
1571011595.2,286047001.6,N
1571011615.1,286047003.5,N
1571011616.0,286047003.5,N
1571011635.8,286047000.4,N
1571011655.7,286046999.9,N
1571011675.5,286047003.9,N
1571011695.3,286047000.4,N
1571011715.2,286047004.4,N
1571011735.0,286047003.2,N
1571011735.9,286047003.2,N
1571011755.8,286047006.8,Y
1571011775.6,286047007.1,P
1571011795.4,286047006.7,N
1571011815.3,286047005.0,N
1571011835.1,286047004.5,N
1571011855.9,286047007.5,Y
1571011875.7,286047002.2,P
1571011895.5,286047001.0,N
1571011915.4,286046999.5,N
1571011935.2,286047000.1,N
1571011955.0,286047000.4,N
1571011955.9,286047000.4,N
1571011975.8,286046999.9,N
1571011995.6,286047000.1,N
1571012015.5,286046999.8,N
1571012035.3,286046999.9,N
1571012055.2,286047002.6,N
1571012075.9,286047000.3,N
1571012095.8,286047000.6,N
1571012115.6,286047000.2,N
1571012135.5,286046998.3,N
1571012155.3,286046998.2,N
1571012175.1,286046999.4,N
1571012195.9,286046996.6,N
1571012215.7,286046997.1,N
1571012235.6,286046996.9,N
1571012255.4,286046996.9,N
1571012275.2,286046996.5,N
1571012295.1,286046999.6,N
1571012296.0,286046999.6,N
1571012315.8,286046999.2,N
1571012335.7,286046998.4,N
1571012355.5,286046997.3,N
1571012375.3,286046999.3,N
1571012395.2,286046999.2,N
1571012415.0,286046996.8,N
1571012415.9,286046996.8,N
1571012435.8,286046997.8,N
1571012455.6,286046996.9,N
1571012475.4,286046997.5,N
1571012495.3,286046996.0,N
1571012515.1,286046994.1,Y
1571012535.8,286046993.9,P
1571012555.7,286046995.8,N
1571012575.5,286046997.1,N
1571012625.4,286046997.2,E
1571012635.3,286046999.5,N
1571012655.2,286047000.8,P
1571012675.9,286046997.7,P
1571012695.7,286046998.2,N
1571012715.6,286046997.5,N
1571012735.4,286046995.8,Y
1571012755.2,286046997.1,P
1571012775.1,286046996.5,P
1571012776.0,286046996.5,P
1571012795.8,286046997.7,N
1571012815.7,286046997.3,Y
1571012835.5,286046998.7,P
1571012855.3,286046998.3,N
1571012875.2,286047000.8,N
1571012895.0,286046998.6,N
1571012895.9,286046998.6,N
1571012915.8,286047001.2,N
1571012935.6,286046998.5,N
1571012955.4,286046998.3,N
1571012975.3,286046998.2,N
1571012995.1,286046999.0,N
1571013015.9,286046998.3,N
1571013035.7,286046998.8,N
1571013055.5,286046999.0,N
1571013075.4,286046998.8,N
1571013095.2,286046998.8,N
1571013115.0,286046996.5,Y
1571013115.9,286046996.5,P
1571013135.8,286047000.0,N
1571013155.6,286047000.9,N
1571013175.5,286047000.0,N
1571013195.3,286047000.4,N
1571013215.1,286046997.0,N
1571013235.9,286046999.6,N
1571013255.7,286047001.1,N
1571013275.6,286047000.1,N
1571013295.4,286047002.6,N
1571013315.2,286047002.0,N
1571013335.1,286047000.7,N
1571013336.0,286047000.7,N
1571013355.8,286046998.7,N
1571013375.6,286047000.4,N
1571013395.5,286047002.4,N
1571013415.3,286047001.8,N
1571013435.2,286047002.3,N
1571013455.9,286047001.7,N
1571013475.7,286047002.6,N
1571013495.6,286047000.1,N
1571013515.4,286046998.6,N
1571013535.3,286046999.1,N
1571013555.1,286046999.1,N
1571013556.0,286046999.1,N
1571013575.8,286047000.0,N
1571013595.7,286047004.4,N
1571013615.5,286047004.4,N
1571013635.4,286047003.6,N
1571013655.2,286047001.4,N
1571013675.0,286047001.3,N
1571013675.9,286047001.3,N
1571013695.8,286047001.6,N
1571013715.6,286047000.2,N
1571013735.4,286047000.5,N
1571013755.3,286047000.8,N
1571013775.1,286047000.0,N
1571013795.0,286047001.7,N
1571013795.9,286047001.7,N
1571013815.8,286047001.9,N
1571013835.6,286047002.6,N
1571013855.4,286047001.2,N
1571013875.3,286047000.9,N
1571013895.1,286046999.0,N
1571013915.9,286046996.9,N
1571013935.7,286046999.9,N
1571013955.5,286047001.0,N
1571013975.4,286047000.3,N
1571013995.2,286047002.3,N
1571014015.1,286047000.1,N
1571014016.0,286047000.1,N
1571014035.8,286047002.0,N
1571014055.6,286047003.9,N
1571014075.5,286047003.8,N
1571014095.3,286047004.2,N
1571014115.2,286047004.4,N
1571014135.9,286047001.4,N
1571014155.7,286047004.0,N
1571014175.6,286047002.4,N
1571014195.4,286047004.2,N
1571014215.2,286047003.8,N
1571014235.1,286047004.1,N
1571014236.0,286047004.1,N
1571014255.8,286047005.6,Y
1571014275.7,286047001.9,P
1571014295.5,286047003.3,P
1571014315.3,286047003.7,P
1571014335.2,286047003.8,Y
1571014355.0,286046998.7,P
1571014355.9,286046998.7,N
1571014375.8,286047000.5,N
1571014395.6,286047000.0,N
1571014415.4,286047001.9,N
1571014435.3,286047001.9,N
1571014455.1,286046998.4,N
1571014475.8,286046998.3,N
1571014495.7,286046998.2,N
1571014515.5,286047000.2,N
1571014535.4,286047000.5,N
1571014555.2,286047002.8,N
1571014575.0,286047002.5,N
1571014575.9,286047002.5,N
1571014595.8,286047002.0,N
1571014615.6,286047001.0,N
1571014635.5,286047000.0,N
1571014655.3,286046999.3,N
1571014675.1,286046998.8,N
1571014695.9,286046999.6,N
1571014715.7,286046999.4,N
1571014735.5,286046995.0,Y
1571014755.4,286046995.5,P
1571014775.2,286046996.3,N
1571014795.1,286046997.7,N
1571014796.0,286046997.7,N
